Flag for India Weather past 2 weeks in Mumbai, Maharashtra, India

Now
91 °F

Haze.


Feels Like: 103 °F
Forecast: 85 / 90 °F
Wind: 13 mph from West

Location: Bombay / Santacruz

Current Time: Apr 19, 2015 at 5:11:19 PM

Latest Report: Apr 19, 2015 at 4:40 PM


Visibility: 2 mi

Pressure: 29.68 "Hg

Humidity: 59%

Dew point: 75 °F

Location of MumbaiLocation

Historic Weather in Mumbai — Graph

°F

Mumbai temperature yesterday

Maximum temperature yesterday: 91 °F (at 11:10 AM)
Minimum temperature yesterday: 82 °F (at 4:10 AM)
Average temperature yesterday: 86 °F

Past Weeks' High & Low Weather Summary

 TemperatureHumidityPressure
High93 °F (Apr 16, 11:40 AM)89% (Apr 10, 6:40 AM)29.95 "Hg (Apr 10, 6:40 AM)
Low77 °F (Apr 15, 2:10 AM)41% (Apr 17, 3:40 PM)29.68 "Hg (Apr 18, 4:40 PM)
Average85 °F70%29.82 "Hg
* Reported Apr 4 3:40 PM — Apr 19 3:40 PM, Mumbai, Weather by CustomWeather, © 2015

Note: Actual official high and low records may vary slightly from our data, if they occured in-between our weather recording intervals... More about our weather records

Advertising

Mumbai weather history for previous 24 hours

 ConditionsComfort  
Time TempWeatherWind HumidityBarometerVisibility
3:40 PM
Sun, Apr 19
91 °FHaze.14 mph67%29.68 "Hg2 mi
3:10 PM91 °FHaze.15 mph63%29.71 "Hg2 mi
2:40 PM91 °FHaze.12 mph63%29.71 "Hg2 mi
2:10 PM91 °FHaze.13 mph63%29.74 "Hg2 mi
1:40 PM91 °FHaze.13 mph63%29.74 "Hg2 mi
1:10 PM91 °FHaze.12 mph63%29.77 "Hg3 mi
12:10 PM91 °FHaze.10 mph63%29.80 "Hg3 mi
11:40 AM91 °FScattered clouds.12 mph63%29.80 "Hg3 mi
11:10 AM93 °FScattered clouds.9 mph59%29.80 "Hg2 mi
10:10 AM91 °FScattered clouds.3 mph59%29.80 "Hg2 mi
9:40 AM90 °FScattered clouds.3 mph55%29.80 "Hg2 mi
9:10 AM88 °FScattered clouds.No wind62%29.80 "Hg2 mi
8:40 AM86 °FScattered clouds.No wind70%29.80 "Hg2 mi
8:10 AM86 °FScattered clouds.No wind70%29.80 "Hg2 mi
7:40 AM86 °FScattered clouds.2 mph66%29.77 "Hg2 mi
7:10 AM84 °FScattered clouds.No wind70%29.77 "Hg2 mi
6:40 AM84 °FPassing clouds.2 mph74%29.74 "Hg2 mi
6:10 AM84 °FPassing clouds.No wind74%29.74 "Hg2 mi
5:40 AM84 °FHaze.2 mph74%29.71 "Hg2 mi
5:10 AM84 °FHaze.No wind74%29.71 "Hg2 mi
4:40 AM84 °FHaze.No wind74%29.71 "Hg2 mi
4:10 AM84 °FHaze.No wind74%29.71 "Hg2 mi
3:10 AM84 °FHaze.No wind79%29.71 "Hg1 mi
2:40 AM86 °FHaze.No wind75%29.74 "Hg1 mi
2:10 AM86 °FHaze.No wind75%29.74 "Hg1 mi
1:40 AM84 °FHaze.No wind79%29.74 "Hg2 mi
1:10 AM86 °FHaze.No wind75%29.74 "Hg2 mi
12:40 AM86 °FHaze.No wind75%29.77 "Hg2 mi
12:10 AM86 °FHaze.3 mph75%29.77 "Hg2 mi
11:40 PM
Sat, Apr 18
86 °FHaze.3 mph75%29.77 "Hg2 mi
11:10 PM86 °FHaze.3 mph75%29.77 "Hg2 mi
10:40 PM86 °FHaze.3 mph79%29.77 "Hg2 mi
10:10 PM86 °FHaze.2 mph79%29.77 "Hg2 mi
9:40 PM86 °FHaze.5 mph79%29.74 "Hg2 mi
9:10 PM86 °FHaze.6 mph79%29.74 "Hg2 mi
8:40 PM86 °FHaze.6 mph79%29.74 "Hg2 mi
7:10 PM86 °FHaze.9 mph79%29.71 "Hg2 mi
6:40 PM88 °FHaze.12 mph75%29.71 "Hg2 mi
6:10 PM88 °FHaze.10 mph75%29.68 "Hg2 mi
5:40 PM88 °FHaze.12 mph75%29.68 "Hg2 mi
5:10 PM88 °FHaze.14 mph75%29.68 "Hg2 mi
Weather by CustomWeather, © 2015

See weather overviewHow to use our weather pages